| time (UTC) | temp F | wind direction | speed MPH | gust MPH | rain 1hr in | rain 24hr in | rain mn in | humidity % | barometer mb |
| 20260503025304 | 57 | 82 | 0.0 | 0.0 | 0.00 | 0.00 | 0.00 | 82 | |
| 20260503024758 | 57 | 82 | 0.0 | 0.0 | 0.00 | 0.00 | 0.00 | 82 | |
| 20260503024254 | 57 | 82 | 0.0 | 0.0 | 0.00 | 0.00 | 0.00 | 80 | |
| 20260503023751 | 57 | 82 | 0.0 | 0.0 | 0.00 | 0.00 | 0.00 | 79 | |
| 20260503023248 | 58 | 82 | 0.0 | 0.0 | 0.00 | 0.00 | 0.00 | 77 | |
| 20260503022744 | 58 | 82 | 0.0 | 0.0 | 0.00 | 0.00 | 0.00 | 76 | |
| 20260503022240 | 59 | 82 | 0.0 | 0.0 | 0.00 | 0.00 | 0.00 | 75 | |
| 20260503021737 | 59 | 82 | 0.0 | 0.0 | 0.00 | 0.00 | 0.00 | 74 | |
| 20260503021232 | 60 | 82 | 0.0 | 0.0 | 0.00 | 0.00 | 0.00 | 74 | |
| 20260503020731 | 60 | 82 | 0.0 | 0.0 | 0.00 | 0.00 | 0.00 | 74 | |
| 20260503020228 | 60 | 82 | 0.0 | 0.0 | 0.00 | 0.00 | 0.00 | 73 | |
| 20260503015724 | 61 | 82 | 0.0 | 0.0 | 0.00 | 0.00 | 0.00 | 72 | |
| 20260503015221 | 62 | 82 | 0.0 | 0.0 | 0.00 | 0.00 | 0.00 | 70 | |
| 20260503014717 | 63 | 82 | 0.0 | 0.0 | 0.00 | 0.00 | 0.00 | 68 | |
| 20260503014215 | 64 | 82 | 0.0 | 0.0 | 0.00 | 0.00 | 0.00 | 66 | |
| 20260503013712 | 65 | 82 | 0.0 | 0.0 | 0.00 | 0.00 | 0.00 | 62 | |
| 20260503013210 | 66 | 82 | 0.0 | 0.0 | 0.00 | 0.00 | 0.00 | 57 | |
| 20260503012707 | 66 | 82 | 0.0 | 0.0 | 0.00 | 0.00 | 0.00 | 56 | |
| 20260503012204 | 67 | 82 | 0.0 | 0.0 | 0.00 | 0.00 | 0.00 | 52 | |
| 20260503011700 | 68 | 82 | 0.0 | 0.0 | 0.00 | 0.00 | 0.00 | 51 | |
| 20260503011157 | 68 | 82 | 0.0 | 0.0 | 0.00 | 0.00 | 0.00 | 48 | |
| 20260503010653 | 69 | 82 | 2.0 | 2.0 | 0.00 | 0.00 | 0.00 | 46 | |
| 20260503010151 | 70 | 82 | 2.0 | 2.0 | 0.00 | 0.00 | 0.00 | 45 | |
| 20260503005648 | 70 | 77 | 2.0 | 2.0 | 0.00 | 0.00 | 0.00 | 44 | |
| 20260503005145 | 70 | 70 | 0.0 | 3.0 | 0.00 | 0.00 | 0.00 | 43 | |
| 20260503004641 | 71 | 65 | 2.0 | 3.0 | 0.00 | 0.00 | 0.00 | 43 | |
| 20260503004140 | 71 | 79 | 2.0 | 2.0 | 0.00 | 0.00 | 0.00 | 43 | |
| 20260503003637 | 71 | 51 | 0.0 | 3.0 | 0.00 | 0.00 | 0.00 | 42 | |
| 20260503003134 | 71 | 56 | 3.0 | 6.0 | 0.00 | 0.00 | 0.00 | 41 | |
| 20260503002630 | 72 | 82 | 3.0 | 3.0 | 0.00 | 0.00 | 0.00 | 40 | |
| 20260503002127 | 72 | 73 | 2.0 | 3.0 | 0.00 | 0.00 | 0.00 | 40 | |
| 20260503001623 | 72 | 24 | 2.0 | 3.0 | 0.00 | 0.00 | 0.00 | 39 | |
| 20260503001120 | 72 | 21 | 3.0 | 5.0 | 0.00 | 0.00 | 0.00 | 39 | |
| 20260503000618 | 72 | 39 | 2.0 | 5.0 | 0.00 | 0.00 | 0.00 | 39 | |
| 20260503000115 | 72 | 49 | 4.0 | 6.0 | 0.00 | 0.00 | 0.00 | 40 | |
| 20260502235611 | 73 | 48 | 3.0 | 6.0 | 0.00 | 0.00 | 0.00 | 39 | |
| 20260502235110 | 73 | 26 | 2.0 | 5.0 | 0.00 | 0.00 | 0.00 | 38 | |
| 20260502234605 | 73 | 356 | 3.0 | 5.0 | 0.00 | 0.00 | 0.00 | 38 | |
| 20260502234103 | 73 | 34 | 2.0 | 5.0 | 0.00 | 0.00 | 0.00 | 38 | |
| 20260502233603 | 73 | 4 | 1.0 | 2.0 | 0.00 | 0.00 | 0.00 | 38 | |
| 20260502233101 | 73 | 359 | 4.0 | 6.0 | 0.00 | 0.00 | 0.00 | 37 | |
| 20260502232556 | 73 | 22 | 3.0 | 6.0 | 0.00 | 0.00 | 0.00 | 38 | |
| 20260502232054 | 73 | 54 | 4.0 | 7.0 | 0.00 | 0.00 | 0.00 | 39 | |
| 20260502231551 | 73 | 56 | 1.0 | 3.0 | 0.00 | 0.00 | 0.00 | 39 | |
| 20260502231049 | 73 | 349 | 5.0 | 9.0 | 0.00 | 0.00 | 0.00 | 38 | |
| 20260502230547 | 73 | 358 | 3.0 | 6.0 | 0.00 | 0.00 | 0.00 | 38 | |
| 20260502230045 | 73 | 335 | 4.0 | 5.0 | 0.00 | 0.00 | 0.00 | 38 | |
| 20260502225540 | 73 | 3 | 4.0 | 6.0 | 0.00 | 0.00 | 0.00 | 38 | |
| 20260502225037 | 74 | 44 | 4.0 | 6.0 | 0.00 | 0.00 | 0.00 | 35 | |
| 20260502224534 | 73 | 354 | 6.0 | 7.0 | 0.00 | 0.00 | 0.00 | 36 | |
| 20260502224031 | 73 | 36 | 5.0 | 9.0 | 0.00 | 0.00 | 0.00 | 35 | |
| 20260502223529 | 73 | 52 | 2.0 | 5.0 | 0.00 | 0.00 | 0.00 | 37 | |
| 20260502223027 | 73 | 32 | 7.0 | 9.0 | 0.00 | 0.00 | 0.00 | 36 | |
| 20260502222524 | 73 | 44 | 4.0 | 7.0 | 0.00 | 0.00 | 0.00 | 36 | |
| 20260502222020 | 73 | 23 | 2.0 | 7.0 | 0.00 | 0.00 | 0.00 | 37 | |
| 20260502221515 | 72 | 60 | 2.0 | 8.0 | 0.00 | 0.00 | 0.00 | 37 | |
| 20260502221013 | 73 | 52 | 4.0 | 13.0 | 0.00 | 0.00 | 0.00 | 36 | |
| 20260502220508 | 72 | 71 | 3.0 | 6.0 | 0.00 | 0.00 | 0.00 | 37 | |
| 20260502220005 | 73 | 80 | 5.0 | 9.0 | 0.00 | 0.00 | 0.00 | 36 | |
| 20260502215503 | 73 | 42 | 3.0 | 9.0 | 0.00 | 0.00 | 0.00 | 38 | |
| 20260502214959 | 73 | 45 | 6.0 | 9.0 | 0.00 | 0.00 | 0.00 | 37 | |
| 20260502214456 | 73 | 82 | 3.0 | 3.0 | 0.00 | 0.00 | 0.00 | 37 | |
| 20260502213954 | 73 | 44 | 5.0 | 9.0 | 0.00 | 0.00 | 0.00 | 38 | |
| 20260502213450 | 73 | 352 | 5.0 | 7.0 | 0.00 | 0.00 | 0.00 | 38 | |
| 20260502212949 | 72 | 52 | 4.0 | 8.0 | 0.00 | 0.00 | 0.00 | 42 | |
| 20260502212447 | 73 | 32 | 3.0 | 11.0 | 0.00 | 0.00 | 0.00 | 40 | |
| 20260502211944 | 73 | 49 | 2.0 | 10.0 | 0.00 | 0.00 | 0.00 | 39 | |
| 20260502211440 | 73 | 358 | 5.0 | 11.0 | 0.00 | 0.00 | 0.00 | 39 | |
| 20260502210938 | 73 | 20 | 7.0 | 8.0 | 0.00 | 0.00 | 0.00 | 40 | |
| 20260502210434 | 72 | 63 | 8.0 | 9.0 | 0.00 | 0.00 | 0.00 | 40 | |
| 20260502205931 | 72 | 89 | 6.0 | 11.0 | 0.00 | 0.00 | 0.00 | 41 | |
| 20260502205427 | 73 | 356 | 8.0 | 16.0 | 0.00 | 0.00 | 0.00 | 41 | |
| 20260502204925 | 73 | 351 | 6.0 | 9.0 | 0.00 | 0.00 | 0.00 | 41 | |
| 20260502204422 | 72 | 29 | 6.0 | 11.0 | 0.00 | 0.00 | 0.00 | 41 | |
| 20260502203920 | 72 | 31 | 5.0 | 11.0 | 0.00 | 0.00 | 0.00 | 40 | |
| 20260502203417 | 71 | 21 | 3.0 | 7.0 | 0.00 | 0.00 | 0.00 | 42 | |
| 20260502202912 | 71 | 331 | 7.0 | 10.0 | 0.00 | 0.00 | 0.00 | 44 | |
| 20260502202410 | 72 | 21 | 6.0 | 10.0 | 0.00 | 0.00 | 0.00 | 45 | |
| 20260502201908 | 72 | 96 | 5.0 | 7.0 | 0.00 | 0.00 | 0.00 | 40 | |
| 20260502201403 | 72 | 66 | 7.0 | 10.0 | 0.00 | 0.00 | 0.00 | 43 | |
| 20260502200900 | 72 | 52 | 3.0 | 8.0 | 0.00 | 0.00 | 0.00 | 42 | |
| 20260502200355 | 71 | 47 | 5.0 | 9.0 | 0.00 | 0.00 | 0.00 | 43 | |
| 20260502195854 | 72 | 344 | 9.0 | 13.0 | 0.00 | 0.00 | 0.00 | 43 | |
| 20260502195350 | 71 | 6 | 3.0 | 5.0 | 0.00 | 0.00 | 0.00 | 43 | |
| 20260502194847 | 71 | 34 | 3.0 | 7.0 | 0.00 | 0.00 | 0.00 | 42 | |
| 20260502194344 | 72 | 67 | 8.0 | 11.0 | 0.00 | 0.00 | 0.00 | 42 | |
| 20260502193840 | 70 | 25 | 6.0 | 8.0 | 0.00 | 0.00 | 0.00 | 42 | |
| 20260502193337 | 71 | 27 | 5.0 | 14.0 | 0.00 | 0.00 | 0.00 | 44 | |
| 20260502192832 | 71 | 38 | 5.0 | 13.0 | 0.00 | 0.00 | 0.00 | 43 | |
| 20260502192330 | 71 | 48 | 3.0 | 7.0 | 0.00 | 0.00 | 0.00 | 45 | |
| 20260502191827 | 71 | 30 | 4.0 | 9.0 | 0.00 | 0.00 | 0.00 | 44 | |
| 20260502191325 | 71 | 59 | 9.0 | 11.0 | 0.00 | 0.00 | 0.00 | 42 | |
| 20260502190822 | 71 | 331 | 4.0 | 8.0 | 0.00 | 0.00 | 0.00 | 44 | |
| 20260502190319 | 71 | 73 | 5.0 | 7.0 | 0.00 | 0.00 | 0.00 | 45 | |
| 20260502185815 | 70 | 5 | 7.0 | 10.0 | 0.00 | 0.00 | 0.00 | 45 | |
| 20260502185311 | 70 | 9 | 4.0 | 13.0 | 0.00 | 0.00 | 0.00 | 50 | |
| 20260502184808 | 70 | 334 | 5.0 | 9.0 | 0.00 | 0.00 | 0.00 | 49 | |
| 20260502184303 | 70 | 4 | 7.0 | 8.0 | 0.00 | 0.00 | 0.00 | 51 | |
| 20260502183800 | 70 | 68 | 6.0 | 8.0 | 0.00 | 0.00 | 0.00 | 50 | |
| 20260502183256 | 69 | 65 | 9.0 | 10.0 | 0.00 | 0.00 | 0.00 | 50 | |
| 20260502182752 | 68 | 58 | 3.0 | 7.0 | 0.00 | 0.00 | 0.00 | 51 | |
| 20260502182247 | 69 | 336 | 7.0 | 8.0 | 0.00 | 0.00 | 0.00 | 52 | |
| 20260502181744 | 69 | 7 | 5.0 | 9.0 | 0.00 | 0.00 | 0.00 | 51 | |
| 20260502181243 | 69 | 279 | 3.0 | 5.0 | 0.00 | 0.00 | 0.00 | 54 | |
| 20260502180740 | 69 | 13 | 4.0 | 13.0 | 0.00 | 0.00 | 0.00 | 52 | |
| 20260502180238 | 68 | 334 | 1.0 | 5.0 | 0.00 | 0.00 | 0.00 | 52 | |
| 20260502170202 | 65 | 295 | 5.0 | 9.0 | 0.00 | 0.00 | 0.00 | 60 | |
| 20260502164148 | 65 | 3 | 9.0 | 10.0 | 0.00 | 0.00 | 0.00 | 59 | |
| 20260502163644 | 64 | 70 | 0.0 | 5.0 | 0.00 | 0.00 | 0.00 | 59 | |
| 20260502163141 | 65 | 1 | 5.0 | 14.0 | 0.00 | 0.00 | 0.00 | 58 | |
| 20260502162638 | 64 | 350 | 9.0 | 13.0 | 0.00 | 0.00 | 0.00 | 58 | |
| 20260502162135 | 63 | 339 | 7.0 | 11.0 | 0.00 | 0.00 | 0.00 | 59 | |
| 20260502161632 | 64 | 329 | 5.0 | 7.0 | 0.00 | 0.00 | 0.00 | 57 | |
| 20260502161129 | 64 | 6 | 6.0 | 8.0 | 0.00 | 0.00 | 0.00 | 59 | |
| 20260502160627 | 64 | 28 | 5.0 | 7.0 | 0.00 | 0.00 | 0.00 | 58 | |
| 20260502160126 | 64 | 349 | 7.0 | 8.0 | 0.00 | 0.00 | 0.00 | 57 | |
| 20260502152040 | 61 | 351 | 8.0 | 9.0 | 0.00 | 0.00 | 0.00 | 64 | |
| 20260502151537 | 61 | 62 | 3.0 | 6.0 | 0.00 | 0.00 | 0.00 | 64 | |
| 20260502151034 | 60 | 3 | 1.0 | 5.0 | 0.00 | 0.00 | 0.00 | 68 | |
| 20260502150531 | 59 | 18 | 6.0 | 8.0 | 0.00 | 0.00 | 0.00 | 68 | |
| 20260502130416 | 51 | 346 | 4.0 | 5.0 | 0.00 | 0.00 | 0.00 | 92 | |
| 20260502123359 | 48 | 28 | 0.0 | 0.0 | 0.00 | 0.00 | 0.00 | 95 | |
| 20260502122856 | 48 | 31 | 0.0 | 0.0 | 0.00 | 0.00 | 0.00 | 95 | |
| 20260502122352 | 47 | 31 | 0.0 | 0.0 | 0.00 | 0.00 | 0.00 | 96 | |
| 20260502121850 | 47 | 31 | 0.0 | 0.0 | 0.00 | 0.00 | 0.00 | 96 | |
| 20260502121347 | 47 | 33 | 0.0 | 0.0 | 0.00 | 0.00 | 0.00 | 96 | |
| 20260502120845 | 47 | 35 | 0.0 | 0.0 | 0.00 | 0.00 | 0.00 | 96 | |
| 20260502120340 | 47 | 42 | 1.0 | 2.0 | 0.00 | 0.00 | 0.00 | 96 | |
| 20260502115838 | 47 | 130 | 1.0 | 1.0 | 0.00 | 0.00 | 0.00 | 96 | |
| 20260502115335 | 47 | 125 | 1.0 | 2.0 | 0.00 | 0.00 | 0.00 | 96 | |
| 20260502114831 | 47 | 299 | 0.0 | 0.0 | 0.00 | 0.00 | 0.00 | 96 | |
| 20260502114329 | 47 | 300 | 0.0 | 0.0 | 0.00 | 0.00 | 0.00 | 96 | |
| 20260502113825 | 47 | 300 | 0.0 | 1.0 | 0.00 | 0.00 | 0.00 | 97 | |
| 20260502113323 | 47 | 309 | 0.0 | 0.0 | 0.00 | 0.00 | 0.00 | 96 | |
| 20260502112821 | 47 | 310 | 0.0 | 0.0 | 0.00 | 0.00 | 0.00 | 97 | |
| 20260502112318 | 47 | 320 | 0.0 | 1.0 | 0.00 | 0.00 | 0.00 | 97 | |
| 20260502111815 | 47 | 312 | 1.0 | 1.0 | 0.00 | 0.00 | 0.00 | 97 | |
| 20260502111313 | 47 | 333 | 1.0 | 2.0 | 0.00 | 0.00 | 0.00 | 97 | |
| 20260502110810 | 47 | 305 | 1.0 | 2.0 | 0.00 | 0.00 | 0.00 | 97 | |
| 20260502110309 | 47 | 302 | 1.0 | 2.0 | 0.00 | 0.00 | 0.00 | 97 | |
| 20260502105806 | 47 | 293 | 0.0 | 0.0 | 0.00 | 0.00 | 0.00 | 97 | |
| 20260502105305 | 47 | 293 | 1.0 | 1.0 | 0.00 | 0.00 | 0.00 | 97 | |
| 20260502104800 | 47 | 289 | 0.0 | 0.0 | 0.00 | 0.00 | 0.00 | 97 | |
| 20260502104257 | 47 | 289 | 0.0 | 0.0 | 0.00 | 0.00 | 0.00 | 97 | |
| 20260502103754 | 47 | 289 | 1.0 | 2.0 | 0.00 | 0.00 | 0.00 | 97 | |
| 20260502103252 | 47 | 289 | 2.0 | 2.0 | 0.00 | 0.00 | 0.00 | 97 | |
| 20260502102749 | 47 | 292 | 2.0 | 2.0 | 0.00 | 0.00 | 0.00 | 97 | |
| 20260502102245 | 47 | 300 | 1.0 | 2.0 | 0.00 | 0.00 | 0.00 | 96 | |
| 20260502101743 | 48 | 304 | 1.0 | 1.0 | 0.00 | 0.00 | 0.00 | 96 | |
| 20260502101241 | 48 | 305 | 1.0 | 2.0 | 0.00 | 0.00 | 0.00 | 96 | |
| 20260502100739 | 48 | 308 | 1.0 | 1.0 | 0.00 | 0.00 | 0.00 | 96 | |
| 20260502100238 | 48 | 308 | 1.0 | 2.0 | 0.00 | 0.00 | 0.00 | 96 | |
| 20260502091212 | 49 | 350 | 4.0 | 5.0 | 0.00 | 0.00 | 0.00 | 96 | |
| 20260502090709 | 49 | 346 | 3.0 | 6.0 | 0.00 | 0.00 | 0.00 | 96 | |
| 20260502090206 | 49 | 339 | 3.0 | 6.0 | 0.00 | 0.00 | 0.00 | 96 | |
| 20260502071101 | 49 | 340 | 3.0 | 3.0 | 0.00 | 0.00 | 0.00 | 96 | |
| 20260502070559 | 49 | 328 | 3.0 | 3.0 | 0.00 | 0.00 | 0.00 | 97 | |
| 20260502070057 | 49 | 339 | 3.0 | 5.0 | 0.00 | 0.00 | 0.00 | 97 | |
| 20260502065555 | 50 | 334 | 3.0 | 5.0 | 0.00 | 0.00 | 0.00 | 97 | |
| 20260502065052 | 50 | 336 | 3.0 | 5.0 | 0.00 | 0.00 | 0.00 | 97 | |
| 20260502064551 | 50 | 347 | 3.0 | 3.0 | 0.00 | 0.00 | 0.00 | 97 | |
| 20260502064048 | 50 | 336 | 2.0 | 3.0 | 0.00 | 0.00 | 0.00 | 97 | |
| 20260502063545 | 50 | 347 | 1.0 | 2.0 | 0.00 | 0.00 | 0.00 | 97 | |
| 20260502063043 | 50 | 341 | 2.0 | 3.0 | 0.00 | 0.00 | 0.00 | 97 | |
| 20260502062540 | 50 | 346 | 3.0 | 3.0 | 0.00 | 0.00 | 0.00 | 97 | |
| 20260502062038 | 50 | 335 | 2.0 | 3.0 | 0.00 | 0.00 | 0.00 | 97 | |
| 20260502061536 | 50 | 339 | 2.0 | 3.0 | 0.00 | 0.00 | 0.00 | 97 | |
| 20260502061033 | 50 | 344 | 3.0 | 5.0 | 0.00 | 0.00 | 0.00 | 97 | |
| 20260502060528 | 50 | 326 | 2.0 | 3.0 | 0.00 | 0.00 | 0.00 | 97 | |
| 20260502060025 | 50 | 340 | 1.0 | 3.0 | 0.00 | 0.00 | 0.00 | 97 | |
| 20260502055522 | 50 | 331 | 2.0 | 2.0 | 0.00 | 0.00 | 0.00 | 97 | |
| 20260502055021 | 50 | 335 | 1.0 | 2.0 | 0.00 | 0.00 | 0.00 | 97 | |
| 20260502054519 | 50 | 327 | 1.0 | 2.0 | 0.00 | 0.00 | 0.00 | 97 | |
| 20260502054016 | 50 | 318 | 2.0 | 5.0 | 0.00 | 0.00 | 0.00 | 97 | |
| 20260502053513 | 50 | 320 | 2.0 | 2.0 | 0.00 | 0.00 | 0.00 | 97 | |
| 20260502053011 | 50 | 320 | 1.0 | 2.0 | 0.00 | 0.00 | 0.00 | 96 | |
| 20260502052509 | 50 | 318 | 1.0 | 5.0 | 0.00 | 0.00 | 0.00 | 96 | |
| 20260502052007 | 50 | 330 | 3.0 | 3.0 | 0.00 | 0.00 | 0.00 | 96 | |
| 20260502051505 | 50 | 334 | 2.0 | 3.0 | 0.00 | 0.00 | 0.00 | 96 | |
| 20260502051001 | 50 | 325 | 3.0 | 5.0 | 0.00 | 0.00 | 0.00 | 96 | |
| 20260502050457 | 51 | 322 | 3.0 | 3.0 | 0.00 | 0.00 | 0.00 | 95 | |
| 20260502045955 | 51 | 335 | 2.0 | 3.0 | 0.00 | 1.49 | 1.49 | 95 | |
| 20260502045452 | 51 | 341 | 3.0 | 3.0 | 0.00 | 1.49 | 1.49 | 95 | |
| 20260502044949 | 51 | 336 | 4.0 | 5.0 | 0.00 | 1.49 | 1.49 | 94 | |
| 20260502044444 | 51 | 359 | 2.0 | 3.0 | 0.00 | 1.49 | 1.49 | 94 | |
| 20260502043941 | 51 | 26 | 2.0 | 2.0 | 0.00 | 1.49 | 1.49 | 93 | |
| 20260502043439 | 52 | 14 | 2.0 | 5.0 | 0.00 | 1.49 | 1.49 | 93 | |
| 20260502042938 | 52 | 23 | 1.0 | 5.0 | 0.00 | 1.49 | 1.49 | 93 | |
| 20260502042436 | 52 | 3 | 3.0 | 8.0 | 0.00 | 1.49 | 1.49 | 94 | |
| 20260502041933 | 52 | 357 | 3.0 | 3.0 | 0.00 | 1.49 | 1.49 | 93 | |
| 20260502041431 | 52 | 339 | 2.0 | 6.0 | 0.00 | 1.49 | 1.49 | 93 | |
| 20260502040927 | 52 | 326 | 3.0 | 7.0 | 0.00 | 1.49 | 1.49 | 93 | |
| 20260502040424 | 52 | 343 | 4.0 | 7.0 | 0.00 | 1.49 | 1.49 | 93 | |
| 20260502035920 | 52 | 3 | 4.0 | 7.0 | 0.00 | 1.49 | 1.49 | 93 | |
| 20260502035417 | 53 | 2 | 5.0 | 10.0 | 0.00 | 1.49 | 1.49 | 93 | |
| 20260502034915 | 53 | 22 | 4.0 | 9.0 | 0.00 | 1.49 | 1.49 | 93 | |
| 20260502034413 | 53 | 30 | 9.0 | 11.0 | 0.00 | 1.49 | 1.49 | 94 | |
| 20260502033911 | 53 | 51 | 6.0 | 9.0 | 0.00 | 1.49 | 1.49 | 95 | |
| 20260502033409 | 53 | 9 | 7.0 | 9.0 | 0.00 | 1.49 | 1.49 | 95 | |
| 20260502032905 | 53 | 342 | 4.0 | 11.0 | 0.00 | 1.49 | 1.49 | 95 | |
| 20260502032401 | 53 | 358 | 5.0 | 7.0 | 0.00 | 1.49 | 1.49 | 95 | |
| 20260502031859 | 53 | 347 | 7.0 | 10.0 | 0.00 | 1.49 | 1.49 | 95 | |
| 20260502031357 | 53 | 359 | 4.0 | 9.0 | 0.00 | 1.49 | 1.49 | 95 | |
| 20260502030855 | 53 | 6 | 5.0 | 8.0 | 0.00 | 1.49 | 1.49 | 96 | |
| 20260502030353 | 53 | 331 | 6.0 | 8.0 | 0.00 | 1.49 | 1.49 | 97 | |
| 20260502025850 | 52 | 26 | 5.0 | 10.0 | 0.00 | 1.49 | 1.49 | 97 |